Year,Month,Day,Hour,Minute,Value (Times are PST for temperature in C)
2018,08,16,00,00,20.70
2018,08,16,00,01,20.60
2018,08,16,00,02,20.60
2018,08,16,00,03,20.60
2018,08,16,00,04,20.60
2018,08,16,00,05,20.60
2018,08,16,00,06,20.50
2018,08,16,00,07,20.50
2018,08,16,00,08,20.50
2018,08,16,00,09,20.40
2018,08,16,00,10,20.40
2018,08,16,00,11,20.40
2018,08,16,00,12,20.40
2018,08,16,00,13,20.40
2018,08,16,00,14,20.40
2018,08,16,00,15,20.40
2018,08,16,00,16,20.40
2018,08,16,00,17,20.40
2018,08,16,00,18,20.40
2018,08,16,00,19,20.40
2018,08,16,00,20,20.30
2018,08,16,00,21,20.30
2018,08,16,00,22,20.30
2018,08,16,00,23,20.30
2018,08,16,00,24,20.30
2018,08,16,00,25,20.20
2018,08,16,00,26,20.20
2018,08,16,00,27,20.20
2018,08,16,00,28,20.20
2018,08,16,00,29,20.20
2018,08,16,00,30,20.20
2018,08,16,00,31,20.20
2018,08,16,00,32,20.20
2018,08,16,00,33,20.20
2018,08,16,00,34,20.20
2018,08,16,00,35,20.20
2018,08,16,00,36,20.20
2018,08,16,00,37,20.20
2018,08,16,00,38,20.20
2018,08,16,00,39,20.20
2018,08,16,00,40,20.20
2018,08,16,00,41,20.20
2018,08,16,00,42,20.20
2018,08,16,00,43,20.20
2018,08,16,00,44,20.10
2018,08,16,00,45,20.10
2018,08,16,00,46,20.10
2018,08,16,00,47,20.10
2018,08,16,00,48,20.10
2018,08,16,00,49,20.10
2018,08,16,00,50,20.10
2018,08,16,00,51,20.10
2018,08,16,00,52,20.10
2018,08,16,00,53,20.10
2018,08,16,00,54,20.10
2018,08,16,00,55,20.10
2018,08,16,00,56,20.00
2018,08,16,00,57,20.00
2018,08,16,00,58,20.00
2018,08,16,00,59,20.00
2018,08,16,01,00,19.90
2018,08,16,01,01,19.90
2018,08,16,01,02,19.90
2018,08,16,01,03,19.90
2018,08,16,01,04,19.80
2018,08,16,01,05,19.80
2018,08,16,01,06,19.80
2018,08,16,01,07,19.80
2018,08,16,01,08,19.70
2018,08,16,01,09,19.70
2018,08,16,01,10,19.70
2018,08,16,01,11,19.70
2018,08,16,01,12,19.60
2018,08,16,01,13,19.60
2018,08,16,01,14,19.60
2018,08,16,01,15,19.50
2018,08,16,01,16,19.50
2018,08,16,01,17,19.50
2018,08,16,01,18,19.40
2018,08,16,01,19,19.40
2018,08,16,01,20,19.40
2018,08,16,01,21,19.40
2018,08,16,01,22,19.40
2018,08,16,01,23,19.30
2018,08,16,01,24,19.30
2018,08,16,01,25,19.30
2018,08,16,01,26,19.30
2018,08,16,01,27,19.30
2018,08,16,01,28,19.30
2018,08,16,01,29,19.30
2018,08,16,01,30,19.40
2018,08,16,01,31,19.40
2018,08,16,01,32,19.40
2018,08,16,01,33,19.40
2018,08,16,01,34,19.40
2018,08,16,01,35,19.40
2018,08,16,01,36,19.40
2018,08,16,01,37,19.40
2018,08,16,01,38,19.40
2018,08,16,01,39,19.40
2018,08,16,01,40,19.40
2018,08,16,01,41,19.40
2018,08,16,01,42,19.30
2018,08,16,01,43,19.30
2018,08,16,01,44,19.30
2018,08,16,01,45,19.30
2018,08,16,01,46,19.20
2018,08,16,01,47,19.20
2018,08,16,01,48,19.20
2018,08,16,01,49,19.10
2018,08,16,01,50,19.10
2018,08,16,01,51,19.10
2018,08,16,01,52,19.00
2018,08,16,01,53,19.00
2018,08,16,01,54,18.90
2018,08,16,01,55,18.90
2018,08,16,01,56,18.90
2018,08,16,01,57,18.80
2018,08,16,01,58,18.80
2018,08,16,01,59,18.80
2018,08,16,02,00,18.70
2018,08,16,02,01,18.70
2018,08,16,02,02,18.70
2018,08,16,02,03,18.60
2018,08,16,02,04,18.60
2018,08,16,02,05,18.60
2018,08,16,02,06,18.60
2018,08,16,02,07,18.60
2018,08,16,02,08,18.60
2018,08,16,02,09,18.60
2018,08,16,02,10,18.60
2018,08,16,02,11,18.60
2018,08,16,02,12,18.60
2018,08,16,02,13,18.70
2018,08,16,02,14,18.70
2018,08,16,02,15,18.70
2018,08,16,02,16,18.70
2018,08,16,02,17,18.70
2018,08,16,02,18,18.80
2018,08,16,02,19,18.70
2018,08,16,02,20,18.70
2018,08,16,02,21,18.80
2018,08,16,02,22,18.80
2018,08,16,02,23,18.90
2018,08,16,02,24,18.90
2018,08,16,02,25,18.90
2018,08,16,02,26,18.90
2018,08,16,02,27,18.90
2018,08,16,02,28,18.90
2018,08,16,02,29,18.90
2018,08,16,02,30,18.90
2018,08,16,02,31,18.90
2018,08,16,02,32,18.90
2018,08,16,02,33,19.00
2018,08,16,02,34,19.00
2018,08,16,02,35,19.10
2018,08,16,02,36,19.20
2018,08,16,02,37,19.20
2018,08,16,02,38,19.20
2018,08,16,02,39,19.20
2018,08,16,02,40,19.20
2018,08,16,02,41,19.10
2018,08,16,02,42,19.00
2018,08,16,02,43,18.90
2018,08,16,02,44,18.80
2018,08,16,02,45,18.70
2018,08,16,02,46,18.70
2018,08,16,02,47,18.60
2018,08,16,02,48,18.60
2018,08,16,02,49,18.50
2018,08,16,02,50,18.40
2018,08,16,02,51,18.40
2018,08,16,02,52,18.30
2018,08,16,02,53,18.30
2018,08,16,02,54,18.20
2018,08,16,02,55,18.20
2018,08,16,02,56,18.20
2018,08,16,02,57,18.20
2018,08,16,02,58,18.20
2018,08,16,02,59,18.20
2018,08,16,03,00,18.10
2018,08,16,03,01,18.10
2018,08,16,03,02,18.10
2018,08,16,03,03,18.10
2018,08,16,03,04,18.10
2018,08,16,03,05,18.10
2018,08,16,03,06,18.10
2018,08,16,03,07,18.20
2018,08,16,03,08,18.20
2018,08,16,03,09,18.20
2018,08,16,03,10,18.20
2018,08,16,03,11,18.20
2018,08,16,03,12,18.20
2018,08,16,03,13,18.20
2018,08,16,03,14,18.20
2018,08,16,03,15,18.20
2018,08,16,03,16,18.20
2018,08,16,03,17,18.20
2018,08,16,03,18,18.20
2018,08,16,03,19,18.20
2018,08,16,03,20,18.20
2018,08,16,03,21,18.20
2018,08,16,03,22,18.20
2018,08,16,03,23,18.20
2018,08,16,03,24,18.20
2018,08,16,03,25,18.20
2018,08,16,03,26,18.20
2018,08,16,03,27,18.20
2018,08,16,03,28,18.20
2018,08,16,03,29,18.20
2018,08,16,03,30,18.20
2018,08,16,03,31,18.20
2018,08,16,03,32,18.20
2018,08,16,03,33,18.20
2018,08,16,03,34,18.20
2018,08,16,03,35,18.20
2018,08,16,03,36,18.20
2018,08,16,03,37,18.20
2018,08,16,03,38,18.20
2018,08,16,03,39,18.20
2018,08,16,03,40,18.20
2018,08,16,03,41,18.20
2018,08,16,03,42,18.20
2018,08,16,03,43,18.20
2018,08,16,03,44,18.20
2018,08,16,03,45,18.20
2018,08,16,03,46,18.10
2018,08,16,03,47,18.10
2018,08,16,03,48,18.10
2018,08,16,03,49,18.10
2018,08,16,03,50,18.10
2018,08,16,03,51,18.10
2018,08,16,03,52,18.10
2018,08,16,03,53,18.10
2018,08,16,03,54,18.10
2018,08,16,03,55,18.10
2018,08,16,03,56,18.10
2018,08,16,03,57,18.10
2018,08,16,03,58,18.10
2018,08,16,03,59,18.20
2018,08,16,04,00,18.20
2018,08,16,04,01,18.20
2018,08,16,04,02,18.20
2018,08,16,04,03,18.20
2018,08,16,04,04,18.20
2018,08,16,04,05,18.20
2018,08,16,04,06,18.20
2018,08,16,04,07,18.20
2018,08,16,04,08,18.20
2018,08,16,04,09,18.20
2018,08,16,04,10,18.20
2018,08,16,04,11,18.20
2018,08,16,04,12,18.20
2018,08,16,04,13,18.20
2018,08,16,04,14,18.20
2018,08,16,04,15,18.20
2018,08,16,04,16,18.20
2018,08,16,04,17,18.20
2018,08,16,04,18,18.20
2018,08,16,04,19,18.10
2018,08,16,04,20,18.10
2018,08,16,04,21,18.10
2018,08,16,04,22,18.10
2018,08,16,04,23,18.10
2018,08,16,04,24,18.10
2018,08,16,04,25,18.00
2018,08,16,04,26,18.00
2018,08,16,04,27,18.00
2018,08,16,04,28,18.00
2018,08,16,04,29,18.00
2018,08,16,04,30,18.00
2018,08,16,04,31,17.90
2018,08,16,04,32,17.90
2018,08,16,04,33,17.90
2018,08,16,04,34,17.90
2018,08,16,04,35,17.90
2018,08,16,04,36,17.90
2018,08,16,04,37,17.90
2018,08,16,04,38,17.90
2018,08,16,04,39,17.90
2018,08,16,04,40,17.80
2018,08,16,04,41,17.80
2018,08,16,04,42,17.80
2018,08,16,04,43,17.80
2018,08,16,04,44,17.80
2018,08,16,04,45,17.80
2018,08,16,04,46,17.80
2018,08,16,04,47,17.80
2018,08,16,04,48,17.80
2018,08,16,04,49,17.80
2018,08,16,04,50,17.80
2018,08,16,04,51,17.80
2018,08,16,04,52,17.80
2018,08,16,04,53,17.70
2018,08,16,04,54,17.70
2018,08,16,04,55,17.70
2018,08,16,04,56,17.70
2018,08,16,04,57,17.70
2018,08,16,04,58,17.70
2018,08,16,04,59,17.70
2018,08,16,05,00,17.60
2018,08,16,05,01,17.60
2018,08,16,05,02,17.60
2018,08,16,05,03,17.60
2018,08,16,05,04,17.60
2018,08,16,05,05,17.60
2018,08,16,05,06,17.50
2018,08,16,05,07,17.50
2018,08,16,05,08,17.50
2018,08,16,05,09,17.50
2018,08,16,05,10,17.50
2018,08,16,05,11,17.50
2018,08,16,05,12,17.40
2018,08,16,05,13,17.40
2018,08,16,05,14,17.40
2018,08,16,05,15,17.40
2018,08,16,05,16,17.40
2018,08,16,05,17,17.30
2018,08,16,05,18,17.30
2018,08,16,05,19,17.30
2018,08,16,05,20,17.30
2018,08,16,05,21,17.30
2018,08,16,05,22,17.20
2018,08,16,05,23,17.20
2018,08,16,05,24,17.20
2018,08,16,05,25,17.20
2018,08,16,05,26,17.10
2018,08,16,05,27,17.10
2018,08,16,05,28,17.10
2018,08,16,05,29,17.10
2018,08,16,05,30,17.00
2018,08,16,05,31,17.00
2018,08,16,05,32,17.00
2018,08,16,05,33,16.90
2018,08,16,05,34,16.90
2018,08,16,05,35,16.90
2018,08,16,05,36,16.90
2018,08,16,05,37,16.90
2018,08,16,05,38,16.80
2018,08,16,05,39,16.80
2018,08,16,05,40,16.80
2018,08,16,05,41,16.80
2018,08,16,05,42,16.80
2018,08,16,05,43,16.80
2018,08,16,05,44,16.70
2018,08,16,05,45,16.70
2018,08,16,05,46,16.70
2018,08,16,05,47,16.70
2018,08,16,05,48,16.70
2018,08,16,05,49,16.70
2018,08,16,05,50,16.70
2018,08,16,05,51,16.70
2018,08,16,05,52,16.70
2018,08,16,05,53,16.70
2018,08,16,05,54,16.80
2018,08,16,05,55,16.80
2018,08,16,05,56,16.80
2018,08,16,05,57,16.80
2018,08,16,05,58,16.80
2018,08,16,05,59,16.80
2018,08,16,06,00,16.80
2018,08,16,06,01,16.80
2018,08,16,06,02,16.80
2018,08,16,06,03,16.80
2018,08,16,06,04,16.80
2018,08,16,06,05,16.80
2018,08,16,06,06,16.80
2018,08,16,06,07,16.80
2018,08,16,06,08,16.80
2018,08,16,06,09,16.80
2018,08,16,06,10,16.80
2018,08,16,06,11,16.80
2018,08,16,06,12,16.80
2018,08,16,06,13,16.70
2018,08,16,06,14,16.70
2018,08,16,06,15,16.70
2018,08,16,06,16,16.70
2018,08,16,06,17,16.70
2018,08,16,06,18,16.70
2018,08,16,06,19,16.70
2018,08,16,06,20,16.70
2018,08,16,06,21,16.70
2018,08,16,06,22,16.70
2018,08,16,06,23,16.70
2018,08,16,06,24,16.70
2018,08,16,06,25,16.70
2018,08,16,06,26,16.70
2018,08,16,06,27,16.70
2018,08,16,06,28,16.70
2018,08,16,06,29,16.70
2018,08,16,06,30,16.70
2018,08,16,06,31,16.70
2018,08,16,06,32,16.70
2018,08,16,06,33,16.70
2018,08,16,06,34,16.70
2018,08,16,06,35,16.70
2018,08,16,06,36,16.70
2018,08,16,06,37,16.80
2018,08,16,06,38,16.80
2018,08,16,06,39,16.80
2018,08,16,06,40,16.80
2018,08,16,06,41,16.80
2018,08,16,06,42,16.80
2018,08,16,06,43,16.90
2018,08,16,06,44,16.90
2018,08,16,06,45,16.90
2018,08,16,06,46,16.90
2018,08,16,06,47,17.00
2018,08,16,06,48,17.00
2018,08,16,06,49,17.00
2018,08,16,06,50,17.10
2018,08,16,06,51,17.10
2018,08,16,06,52,17.10
2018,08,16,06,53,17.10
2018,08,16,06,54,17.20
2018,08,16,06,55,17.20
2018,08,16,06,56,17.20
2018,08,16,06,57,17.20
2018,08,16,06,58,17.20
2018,08,16,06,59,17.20
2018,08,16,07,00,17.20
2018,08,16,07,01,17.20
2018,08,16,07,02,17.20
2018,08,16,07,03,17.20
2018,08,16,07,04,17.30
2018,08,16,07,05,17.30
2018,08,16,07,06,17.30
2018,08,16,07,07,17.30
2018,08,16,07,08,17.30
2018,08,16,07,09,17.30
2018,08,16,07,10,17.30
2018,08,16,07,11,17.40
2018,08,16,07,12,17.40
2018,08,16,07,13,17.40
2018,08,16,07,14,17.40
2018,08,16,07,15,17.40
2018,08,16,07,16,17.40
2018,08,16,07,17,17.40
2018,08,16,07,18,17.40
2018,08,16,07,19,17.40
2018,08,16,07,20,17.50
2018,08,16,07,21,17.50
2018,08,16,07,22,17.50
2018,08,16,07,23,17.50
2018,08,16,07,24,17.50
2018,08,16,07,25,17.50
2018,08,16,07,26,17.50
2018,08,16,07,27,17.50
2018,08,16,07,28,17.40
2018,08,16,07,29,17.40
2018,08,16,07,30,17.40
2018,08,16,07,31,17.40
2018,08,16,07,32,17.40
2018,08,16,07,33,17.40
2018,08,16,07,34,17.40
2018,08,16,07,35,17.40
2018,08,16,07,36,17.40
2018,08,16,07,37,17.40
2018,08,16,07,38,17.40
2018,08,16,07,39,17.40
2018,08,16,07,40,17.40
2018,08,16,07,41,17.40
2018,08,16,07,42,17.40
2018,08,16,07,43,17.40
2018,08,16,07,44,17.40
2018,08,16,07,45,17.40
2018,08,16,07,46,17.40
2018,08,16,07,47,17.40
2018,08,16,07,48,17.40
2018,08,16,07,49,17.30
2018,08,16,07,50,17.30
2018,08,16,07,51,17.30
2018,08,16,07,52,17.30
2018,08,16,07,53,17.30
2018,08,16,07,54,17.30
2018,08,16,07,55,17.30
2018,08,16,07,56,17.20
2018,08,16,07,57,17.20
2018,08,16,07,58,17.20
2018,08,16,07,59,17.20
2018,08,16,08,00,17.20
2018,08,16,08,01,17.20
2018,08,16,08,02,17.10
2018,08,16,08,03,17.10
2018,08,16,08,04,17.10
2018,08,16,08,05,17.10
2018,08,16,08,06,17.10
2018,08,16,08,07,17.10
2018,08,16,08,08,17.10
2018,08,16,08,09,17.10
2018,08,16,08,10,17.10
2018,08,16,08,11,17.10
2018,08,16,08,12,17.10
2018,08,16,08,13,17.10
2018,08,16,08,14,17.10
2018,08,16,08,15,17.00
2018,08,16,08,16,17.00
2018,08,16,08,17,17.00
2018,08,16,08,18,17.00
2018,08,16,08,19,17.00
2018,08,16,08,20,17.00
2018,08,16,08,21,17.00
2018,08,16,08,22,16.90
2018,08,16,08,23,16.90
2018,08,16,08,24,17.00
2018,08,16,08,25,17.00
2018,08,16,08,26,17.00
2018,08,16,08,27,17.00
2018,08,16,08,28,17.00
2018,08,16,08,29,17.10
2018,08,16,08,30,17.10
2018,08,16,08,31,17.10
2018,08,16,08,32,17.20
2018,08,16,08,33,17.20
2018,08,16,08,34,17.30
2018,08,16,08,35,17.40
2018,08,16,08,36,17.50
2018,08,16,08,37,17.50
2018,08,16,08,38,17.60
2018,08,16,08,39,17.70
2018,08,16,08,40,17.80
2018,08,16,08,41,17.90
2018,08,16,08,42,18.00
2018,08,16,08,43,18.00
2018,08,16,08,44,18.10
2018,08,16,08,45,18.20
2018,08,16,08,46,18.20
2018,08,16,08,47,18.30
2018,08,16,08,48,18.40
2018,08,16,08,49,18.40
2018,08,16,08,50,18.50
2018,08,16,08,51,18.60
2018,08,16,08,52,18.70
2018,08,16,08,53,18.70
2018,08,16,08,54,18.80
2018,08,16,08,55,18.80
2018,08,16,08,56,18.90
2018,08,16,08,57,18.90
2018,08,16,08,58,18.90
2018,08,16,08,59,19.00
2018,08,16,09,00,19.00
2018,08,16,09,01,19.00
2018,08,16,09,02,19.10
2018,08,16,09,03,19.10
2018,08,16,09,04,19.10
2018,08,16,09,05,19.20
2018,08,16,09,06,19.10
2018,08,16,09,07,19.10
2018,08,16,09,08,19.10
2018,08,16,09,09,19.10
2018,08,16,09,10,19.00
2018,08,16,09,11,19.00
2018,08,16,09,12,19.00
2018,08,16,09,13,19.00
2018,08,16,09,14,19.00
2018,08,16,09,15,19.00
2018,08,16,09,16,19.00
2018,08,16,09,17,19.00
2018,08,16,09,18,19.00
2018,08,16,09,19,19.00
2018,08,16,09,20,19.10
2018,08,16,09,21,19.10
2018,08,16,09,22,19.10
2018,08,16,09,23,19.20
2018,08,16,09,24,19.20
2018,08,16,09,25,19.20
2018,08,16,09,26,19.20
2018,08,16,09,27,19.30
2018,08,16,09,28,19.30
2018,08,16,09,29,19.40
2018,08,16,09,30,19.40
2018,08,16,09,31,19.50
2018,08,16,09,32,19.50
2018,08,16,09,33,19.60
2018,08,16,09,34,19.60
2018,08,16,09,35,19.70
2018,08,16,09,36,19.80
2018,08,16,09,37,19.80
2018,08,16,09,38,19.90
2018,08,16,09,39,19.90
2018,08,16,09,40,20.00
2018,08,16,09,41,20.00
2018,08,16,09,42,20.10
2018,08,16,09,43,20.10
2018,08,16,09,44,20.00
2018,08,16,09,45,20.00
2018,08,16,09,46,20.00
2018,08,16,09,47,20.00
2018,08,16,09,48,20.00
2018,08,16,09,49,20.00
2018,08,16,09,50,20.10
2018,08,16,09,51,20.10
2018,08,16,09,52,20.10
2018,08,16,09,53,20.10
2018,08,16,09,54,20.00
2018,08,16,09,55,20.00
2018,08,16,09,56,20.00
2018,08,16,09,57,20.00
2018,08,16,09,58,19.90
2018,08,16,09,59,19.90
2018,08,16,10,00,19.90
2018,08,16,10,01,19.90
2018,08,16,10,02,19.90
2018,08,16,10,03,19.90
2018,08,16,10,04,19.90
2018,08,16,10,05,19.90
2018,08,16,10,06,20.00
2018,08,16,10,07,20.00
2018,08,16,10,08,20.10
2018,08,16,10,09,20.10
2018,08,16,10,10,20.20
2018,08,16,10,11,20.20
2018,08,16,10,12,20.20
2018,08,16,10,13,20.30
2018,08,16,10,14,20.30
2018,08,16,10,15,20.30
2018,08,16,10,16,20.30
2018,08,16,10,17,20.30
2018,08,16,10,18,20.30
2018,08,16,10,19,20.30
2018,08,16,10,20,20.30
2018,08,16,10,21,20.20
2018,08,16,10,22,20.20
2018,08,16,10,23,20.20
2018,08,16,10,24,20.20
2018,08,16,10,25,20.30
2018,08,16,10,26,20.30
2018,08,16,10,27,20.40
2018,08,16,10,28,20.40
2018,08,16,10,29,20.40
2018,08,16,10,30,20.50
2018,08,16,10,31,20.60
2018,08,16,10,32,20.60
2018,08,16,10,33,20.70
2018,08,16,10,34,20.80
2018,08,16,10,35,20.80
2018,08,16,10,36,20.90
2018,08,16,10,37,20.90
2018,08,16,10,38,20.90
2018,08,16,10,39,20.80
2018,08,16,10,40,20.80
2018,08,16,10,41,20.80
2018,08,16,10,42,20.80
2018,08,16,10,43,20.80
2018,08,16,10,44,20.70
2018,08,16,10,45,20.70
2018,08,16,10,46,20.70
2018,08,16,10,47,20.60
2018,08,16,10,48,20.60
2018,08,16,10,49,20.60
2018,08,16,10,50,20.70
2018,08,16,10,51,20.70
2018,08,16,10,52,20.70
2018,08,16,10,53,20.70
2018,08,16,10,54,20.70
2018,08,16,10,55,20.80
2018,08,16,10,56,20.80
2018,08,16,10,57,20.80
2018,08,16,10,58,20.80
2018,08,16,10,59,20.90
2018,08,16,11,00,20.90
2018,08,16,11,01,20.90
2018,08,16,11,02,20.80
2018,08,16,11,03,20.80
2018,08,16,11,04,20.80
2018,08,16,11,05,20.80
2018,08,16,11,06,20.70
2018,08,16,11,07,20.70
2018,08,16,11,08,20.80
2018,08,16,11,09,20.80
2018,08,16,11,10,20.80
2018,08,16,11,11,20.80
2018,08,16,11,12,20.80
2018,08,16,11,13,20.80
2018,08,16,11,14,20.80
2018,08,16,11,15,20.90
2018,08,16,11,16,20.90
2018,08,16,11,17,20.90
2018,08,16,11,18,21.00
2018,08,16,11,19,21.00
2018,08,16,11,20,21.00
2018,08,16,11,21,21.10
2018,08,16,11,22,21.10
2018,08,16,11,23,21.10
2018,08,16,11,24,21.10
2018,08,16,11,25,21.10
2018,08,16,11,26,21.10
2018,08,16,11,27,21.10
2018,08,16,11,28,21.20
2018,08,16,11,29,21.20
2018,08,16,11,30,21.30
2018,08,16,11,31,21.20
2018,08,16,11,32,21.20
2018,08,16,11,33,21.20
2018,08,16,11,34,21.30
2018,08,16,11,35,21.30
2018,08,16,11,36,21.40
2018,08,16,11,37,21.40
2018,08,16,11,38,21.30
2018,08,16,11,39,21.30
2018,08,16,11,40,21.20
2018,08,16,11,41,21.30
2018,08,16,11,42,21.30
2018,08,16,11,43,21.30
2018,08,16,11,44,21.30
2018,08,16,11,45,21.30
2018,08,16,11,46,21.30
2018,08,16,11,47,21.30
2018,08,16,11,48,21.20
2018,08,16,11,49,21.20
2018,08,16,11,50,21.20
2018,08,16,11,51,21.20
2018,08,16,11,52,21.30
2018,08,16,11,53,21.30
2018,08,16,11,54,21.30
2018,08,16,11,55,21.30
2018,08,16,11,56,21.40
2018,08,16,11,57,21.40
2018,08,16,11,58,21.50
2018,08,16,11,59,21.60
2018,08,16,12,00,21.60
2018,08,16,12,01,21.70
2018,08,16,12,02,21.70
2018,08,16,12,03,21.70
2018,08,16,12,04,21.70
2018,08,16,12,05,21.70
2018,08,16,12,06,21.70
2018,08,16,12,07,21.80
2018,08,16,12,08,21.80
2018,08,16,12,09,21.90
2018,08,16,12,10,21.90
2018,08,16,12,11,21.90
2018,08,16,12,12,21.90
2018,08,16,12,13,21.90
2018,08,16,12,14,21.90
2018,08,16,12,15,21.90
2018,08,16,12,16,22.00
2018,08,16,12,17,22.10
2018,08,16,12,18,22.10
2018,08,16,12,19,22.20
2018,08,16,12,20,22.20
2018,08,16,12,21,22.30
2018,08,16,12,22,22.30
2018,08,16,12,23,22.30
2018,08,16,12,24,22.20
2018,08,16,12,25,22.20
2018,08,16,12,26,22.10
2018,08,16,12,27,22.10
2018,08,16,12,28,22.10
2018,08,16,12,29,22.10
2018,08,16,12,30,22.00
2018,08,16,12,31,22.00
2018,08,16,12,32,21.90
2018,08,16,12,33,21.90
2018,08,16,12,34,21.90
2018,08,16,12,35,22.00
2018,08,16,12,36,21.90
2018,08,16,12,37,21.90
2018,08,16,12,38,21.90
2018,08,16,12,39,22.00
2018,08,16,12,40,22.00
2018,08,16,12,41,22.00
2018,08,16,12,42,22.10
2018,08,16,12,43,22.10
2018,08,16,12,44,22.10
2018,08,16,12,45,22.10
2018,08,16,12,46,22.00
2018,08,16,12,47,22.00
2018,08,16,12,48,21.90
2018,08,16,12,49,21.80
2018,08,16,12,50,21.80
2018,08,16,12,51,21.70
2018,08,16,12,52,21.70
2018,08,16,12,53,21.70
2018,08,16,12,54,21.70
2018,08,16,12,55,21.80
2018,08,16,12,56,21.90
2018,08,16,12,57,22.10
2018,08,16,12,58,22.20
2018,08,16,12,59,22.40
2018,08,16,13,00,22.60
2018,08,16,13,01,22.70
2018,08,16,13,02,22.80
2018,08,16,13,03,22.80
2018,08,16,13,04,22.90
2018,08,16,13,05,23.00
2018,08,16,13,06,23.10
2018,08,16,13,07,23.20
2018,08,16,13,08,23.20
2018,08,16,13,09,23.40
2018,08,16,13,10,23.50
2018,08,16,13,11,23.60
2018,08,16,13,12,23.60
2018,08,16,13,13,23.60
2018,08,16,13,14,23.60
2018,08,16,13,15,23.70
2018,08,16,13,16,23.70
2018,08,16,13,17,23.70
2018,08,16,13,18,23.70
2018,08,16,13,19,23.70
2018,08,16,13,20,23.70
2018,08,16,13,21,23.70
2018,08,16,13,22,23.70
2018,08,16,13,23,23.70
2018,08,16,13,24,23.70
2018,08,16,13,25,23.70
2018,08,16,13,26,23.70
2018,08,16,13,27,23.60
2018,08,16,13,28,23.60
2018,08,16,13,29,23.60
2018,08,16,13,30,23.60
2018,08,16,13,31,23.50
2018,08,16,13,32,23.50
2018,08,16,13,33,23.50
2018,08,16,13,34,23.50
2018,08,16,13,35,23.50
2018,08,16,13,36,23.50
2018,08,16,13,37,23.60
2018,08,16,13,38,23.70
2018,08,16,13,39,23.80
2018,08,16,13,40,23.80
2018,08,16,13,41,23.80
2018,08,16,13,42,23.90
2018,08,16,13,43,24.00
2018,08,16,13,44,24.00
2018,08,16,13,45,23.90
2018,08,16,13,46,23.90
2018,08,16,13,47,23.90
2018,08,16,13,48,23.90
2018,08,16,13,49,24.00
2018,08,16,13,50,24.00
2018,08,16,13,51,24.10
2018,08,16,13,52,24.10
2018,08,16,13,53,24.10
2018,08,16,13,54,24.00
2018,08,16,13,55,24.00
2018,08,16,13,56,23.90
2018,08,16,13,57,23.90
2018,08,16,13,58,23.80
2018,08,16,13,59,23.90
2018,08,16,14,00,23.90
2018,08,16,14,01,23.90
2018,08,16,14,02,23.90
2018,08,16,14,03,24.00
2018,08,16,14,04,24.00
2018,08,16,14,05,24.10
2018,08,16,14,06,24.20
2018,08,16,14,07,24.20
2018,08,16,14,08,24.20
2018,08,16,14,09,24.30
2018,08,16,14,10,24.20
2018,08,16,14,11,24.20
2018,08,16,14,12,24.20
2018,08,16,14,13,24.20
2018,08,16,14,14,24.20
2018,08,16,14,15,24.20
2018,08,16,14,16,24.20
2018,08,16,14,17,24.20
2018,08,16,14,18,24.20
2018,08,16,14,19,24.30
2018,08,16,14,20,24.30
2018,08,16,14,21,24.30
2018,08,16,14,22,24.30
2018,08,16,14,23,24.40
2018,08,16,14,24,24.40
2018,08,16,14,25,24.40
2018,08,16,14,26,24.50
2018,08,16,14,27,24.60
2018,08,16,14,28,24.70
2018,08,16,14,29,24.80
2018,08,16,14,30,24.80
2018,08,16,14,31,24.80
2018,08,16,14,32,24.90
2018,08,16,14,33,24.90
2018,08,16,14,34,24.90
2018,08,16,14,35,24.90
2018,08,16,14,36,24.90
2018,08,16,14,37,24.80
2018,08,16,14,38,24.80
2018,08,16,14,39,24.90
2018,08,16,14,40,24.90
2018,08,16,14,41,25.00
2018,08,16,14,42,25.00
2018,08,16,14,43,25.00
2018,08,16,14,44,25.00
2018,08,16,14,45,24.90
2018,08,16,14,46,24.90
2018,08,16,14,47,24.90
2018,08,16,14,48,25.00
2018,08,16,14,49,25.10
2018,08,16,14,50,25.10
2018,08,16,14,51,25.20
2018,08,16,14,52,25.20
2018,08,16,14,53,25.20
2018,08,16,14,54,25.10
2018,08,16,14,55,25.10
2018,08,16,14,56,25.00
2018,08,16,14,57,24.90
2018,08,16,14,58,24.80
2018,08,16,14,59,24.70
2018,08,16,15,00,24.70
2018,08,16,15,01,24.70
2018,08,16,15,02,24.70
2018,08,16,15,03,24.80
2018,08,16,15,04,24.80
2018,08,16,15,05,24.90
2018,08,16,15,06,24.90
2018,08,16,15,07,24.90
2018,08,16,15,08,25.00
2018,08,16,15,09,25.00
2018,08,16,15,10,25.10
2018,08,16,15,11,25.10
2018,08,16,15,12,25.10
2018,08,16,15,13,25.10
2018,08,16,15,14,25.10
2018,08,16,15,15,25.10
2018,08,16,15,16,25.10
2018,08,16,15,17,25.10
2018,08,16,15,18,25.10
2018,08,16,15,19,25.10
2018,08,16,15,20,25.20
2018,08,16,15,21,25.30
2018,08,16,15,22,25.40
2018,08,16,15,23,25.50
2018,08,16,15,24,25.60
2018,08,16,15,25,25.70
2018,08,16,15,26,25.70
2018,08,16,15,27,25.60
2018,08,16,15,28,25.60
2018,08,16,15,29,25.50
2018,08,16,15,30,25.50
2018,08,16,15,31,25.40
2018,08,16,15,32,25.30
2018,08,16,15,33,25.30
2018,08,16,15,34,25.40
2018,08,16,15,35,25.50
2018,08,16,15,36,25.50
2018,08,16,15,37,25.50
2018,08,16,15,38,25.50
2018,08,16,15,39,25.60
2018,08,16,15,40,25.60
2018,08,16,15,41,25.60
2018,08,16,15,42,25.70
2018,08,16,15,43,25.70
2018,08,16,15,44,25.80
2018,08,16,15,45,25.90
2018,08,16,15,46,25.90
2018,08,16,15,47,25.80
2018,08,16,15,48,25.70
2018,08,16,15,49,25.70
2018,08,16,15,50,25.70
2018,08,16,15,51,25.70
2018,08,16,15,52,25.70
2018,08,16,15,53,25.70
2018,08,16,15,54,25.70
2018,08,16,15,55,25.70
2018,08,16,15,56,25.80
2018,08,16,15,57,25.90
2018,08,16,15,58,25.90
2018,08,16,15,59,25.90
2018,08,16,16,00,25.80
2018,08,16,16,01,25.80
2018,08,16,16,02,25.70
2018,08,16,16,03,25.60
2018,08,16,16,04,25.60
2018,08,16,16,05,25.60
2018,08,16,16,06,25.60
2018,08,16,16,07,25.60
2018,08,16,16,08,25.60
2018,08,16,16,09,25.60
2018,08,16,16,10,25.70
2018,08,16,16,11,25.80
2018,08,16,16,12,25.80
2018,08,16,16,13,25.90
2018,08,16,16,14,25.90
2018,08,16,16,15,26.00
2018,08,16,16,16,26.00
2018,08,16,16,17,26.00
2018,08,16,16,18,26.00
2018,08,16,16,19,25.90
2018,08,16,16,20,25.80
2018,08,16,16,21,25.70
2018,08,16,16,22,25.70
2018,08,16,16,23,25.60
2018,08,16,16,24,25.60
2018,08,16,16,25,25.60
2018,08,16,16,26,25.60
2018,08,16,16,27,25.60
2018,08,16,16,28,25.60
2018,08,16,16,29,25.60
2018,08,16,16,30,25.60
2018,08,16,16,31,25.70
2018,08,16,16,32,25.70
2018,08,16,16,33,25.70
2018,08,16,16,34,25.70
2018,08,16,16,35,25.80
2018,08,16,16,36,25.80
2018,08,16,16,37,25.90
2018,08,16,16,38,25.90
2018,08,16,16,39,26.00
2018,08,16,16,40,26.10
2018,08,16,16,41,26.10
2018,08,16,16,42,26.20
2018,08,16,16,43,26.20
2018,08,16,16,44,26.20
2018,08,16,16,45,26.20
2018,08,16,16,46,26.30
2018,08,16,16,47,26.30
2018,08,16,16,48,26.30
2018,08,16,16,49,26.40
2018,08,16,16,50,26.40
2018,08,16,16,51,26.40
2018,08,16,16,52,26.50
2018,08,16,16,53,26.60
2018,08,16,16,54,26.70
2018,08,16,16,55,26.70
2018,08,16,16,56,26.70
2018,08,16,16,57,26.60
2018,08,16,16,58,26.60
2018,08,16,16,59,26.60
2018,08,16,17,00,26.60
2018,08,16,17,01,26.60
2018,08,16,17,02,26.60
2018,08,16,17,03,26.70
2018,08,16,17,04,26.70
2018,08,16,17,05,26.80
2018,08,16,17,06,26.80
2018,08,16,17,07,26.80
2018,08,16,17,08,26.80
2018,08,16,17,09,26.80
2018,08,16,17,10,26.70
2018,08,16,17,11,26.70
2018,08,16,17,12,26.60
2018,08,16,17,13,26.60
2018,08,16,17,14,26.60
2018,08,16,17,15,26.60
2018,08,16,17,16,26.50
2018,08,16,17,17,26.60
2018,08,16,17,18,26.60
2018,08,16,17,19,26.70